Year,Month,Day,Hour,Minute,Value (Times are PST for temperature in C)
2016,05,02,00,00,10.70
2016,05,02,00,01,10.70
2016,05,02,00,02,10.80
2016,05,02,00,03,10.90
2016,05,02,00,04,10.90
2016,05,02,00,05,10.90
2016,05,02,00,06,11.00
2016,05,02,00,07,11.00
2016,05,02,00,08,11.10
2016,05,02,00,09,11.20
2016,05,02,00,10,11.20
2016,05,02,00,11,11.20
2016,05,02,00,12,11.20
2016,05,02,00,13,11.10
2016,05,02,00,14,11.10
2016,05,02,00,15,11.10
2016,05,02,00,16,11.10
2016,05,02,00,17,11.10
2016,05,02,00,18,11.10
2016,05,02,00,19,11.10
2016,05,02,00,20,11.10
2016,05,02,00,21,11.10
2016,05,02,00,22,11.10
2016,05,02,00,23,11.10
2016,05,02,00,24,11.10
2016,05,02,00,25,11.10
2016,05,02,00,26,11.10
2016,05,02,00,27,11.10
2016,05,02,00,28,11.10
2016,05,02,00,29,11.10
2016,05,02,00,30,11.10
2016,05,02,00,31,11.10
2016,05,02,00,32,11.10
2016,05,02,00,33,11.10
2016,05,02,00,34,11.10
2016,05,02,00,35,11.10
2016,05,02,00,36,11.10
2016,05,02,00,37,11.10
2016,05,02,00,38,11.10
2016,05,02,00,39,11.10
2016,05,02,00,40,11.00
2016,05,02,00,41,11.00
2016,05,02,00,42,10.90
2016,05,02,00,43,10.90
2016,05,02,00,44,10.90
2016,05,02,00,45,10.90
2016,05,02,00,46,10.90
2016,05,02,00,47,10.90
2016,05,02,00,48,10.80
2016,05,02,00,49,10.80
2016,05,02,00,50,10.80
2016,05,02,00,51,10.80
2016,05,02,00,52,10.70
2016,05,02,00,53,10.70
2016,05,02,00,54,10.70
2016,05,02,00,55,10.70
2016,05,02,00,56,10.70
2016,05,02,00,57,10.70
2016,05,02,00,58,10.70
2016,05,02,00,59,10.70
2016,05,02,01,00,10.70
2016,05,02,01,01,10.70
2016,05,02,01,02,10.70
2016,05,02,01,03,10.70
2016,05,02,01,04,10.70
2016,05,02,01,05,10.70
2016,05,02,01,06,10.70
2016,05,02,01,07,10.70
2016,05,02,01,08,10.70
2016,05,02,01,09,10.70
2016,05,02,01,10,10.70
2016,05,02,01,11,10.70
2016,05,02,01,12,10.70
2016,05,02,01,13,10.80
2016,05,02,01,14,10.80
2016,05,02,01,15,10.80
2016,05,02,01,16,10.80
2016,05,02,01,17,10.80
2016,05,02,01,18,10.80
2016,05,02,01,19,10.80
2016,05,02,01,20,10.80
2016,05,02,01,21,10.80
2016,05,02,01,22,10.80
2016,05,02,01,23,10.80
2016,05,02,01,24,10.80
2016,05,02,01,25,10.80
2016,05,02,01,26,10.80
2016,05,02,01,27,10.80
2016,05,02,01,28,10.80
2016,05,02,01,29,10.80
2016,05,02,01,30,10.70
2016,05,02,01,31,10.70
2016,05,02,01,32,10.70
2016,05,02,01,33,10.60
2016,05,02,01,34,10.60
2016,05,02,01,35,10.70
2016,05,02,01,36,10.70
2016,05,02,01,37,10.80
2016,05,02,01,38,10.80
2016,05,02,01,39,10.80
2016,05,02,01,40,10.80
2016,05,02,01,41,10.80
2016,05,02,01,42,10.80
2016,05,02,01,43,10.80
2016,05,02,01,44,10.80
2016,05,02,01,45,10.80
2016,05,02,01,46,10.70
2016,05,02,01,47,10.70
2016,05,02,01,48,10.70
2016,05,02,01,49,10.70
2016,05,02,01,50,10.70
2016,05,02,01,51,10.70
2016,05,02,01,52,10.70
2016,05,02,01,53,10.70
2016,05,02,01,54,10.70
2016,05,02,01,55,10.70
2016,05,02,01,56,10.70
2016,05,02,01,57,10.70
2016,05,02,01,58,10.70
2016,05,02,01,59,10.70
2016,05,02,02,00,10.70
2016,05,02,02,01,10.60
2016,05,02,02,02,10.60
2016,05,02,02,03,10.60
2016,05,02,02,04,10.60
2016,05,02,02,05,10.50
2016,05,02,02,06,10.50
2016,05,02,02,07,10.50
2016,05,02,02,08,10.50
2016,05,02,02,09,10.50
2016,05,02,02,10,10.50
2016,05,02,02,11,10.50
2016,05,02,02,12,10.40
2016,05,02,02,13,10.40
2016,05,02,02,14,10.40
2016,05,02,02,15,10.40
2016,05,02,02,16,10.40
2016,05,02,02,17,10.40
2016,05,02,02,18,10.40
2016,05,02,02,19,10.40
2016,05,02,02,20,10.50
2016,05,02,02,21,10.50
2016,05,02,02,22,10.60
2016,05,02,02,23,10.60
2016,05,02,02,24,10.70
2016,05,02,02,25,10.70
2016,05,02,02,26,10.70
2016,05,02,02,27,10.70
2016,05,02,02,28,10.70
2016,05,02,02,29,10.70
2016,05,02,02,30,10.60
2016,05,02,02,31,10.50
2016,05,02,02,32,10.50
2016,05,02,02,33,10.50
2016,05,02,02,34,10.50
2016,05,02,02,35,10.40
2016,05,02,02,36,10.40
2016,05,02,02,37,10.40
2016,05,02,02,38,10.40
2016,05,02,02,39,10.40
2016,05,02,02,40,10.40
2016,05,02,02,41,10.40
2016,05,02,02,42,10.50
2016,05,02,02,43,10.50
2016,05,02,02,44,10.60
2016,05,02,02,45,10.60
2016,05,02,02,46,10.60
2016,05,02,02,47,10.60
2016,05,02,02,48,10.60
2016,05,02,02,49,10.60
2016,05,02,02,50,10.60
2016,05,02,02,51,10.60
2016,05,02,02,52,10.60
2016,05,02,02,53,10.50
2016,05,02,02,54,10.50
2016,05,02,02,55,10.50
2016,05,02,02,56,10.50
2016,05,02,02,57,10.50
2016,05,02,02,58,10.50
2016,05,02,02,59,10.50
2016,05,02,03,00,10.50
2016,05,02,03,01,10.50
2016,05,02,03,02,10.40
2016,05,02,03,03,10.40
2016,05,02,03,04,10.40
2016,05,02,03,05,10.30
2016,05,02,03,06,10.20
2016,05,02,03,07,10.20
2016,05,02,03,08,10.20
2016,05,02,03,09,10.10
2016,05,02,03,10,10.10
2016,05,02,03,11,10.10
2016,05,02,03,12,10.10
2016,05,02,03,13,10.10
2016,05,02,03,14,10.10
2016,05,02,03,15,10.10
2016,05,02,03,16,10.10
2016,05,02,03,17,10.10
2016,05,02,03,18,10.10
2016,05,02,03,19,10.10
2016,05,02,03,20,10.10
2016,05,02,03,21,10.10
2016,05,02,03,22,10.10
2016,05,02,03,23,10.10
2016,05,02,03,24,10.10
2016,05,02,03,25,10.10
2016,05,02,03,26,10.00
2016,05,02,03,27,10.00
2016,05,02,03,28,10.00
2016,05,02,03,29,10.00
2016,05,02,03,30,10.00
2016,05,02,03,31,10.10
2016,05,02,03,32,10.10
2016,05,02,03,33,10.10
2016,05,02,03,34,10.20
2016,05,02,03,35,10.20
2016,05,02,03,36,10.20
2016,05,02,03,37,10.20
2016,05,02,03,38,10.20
2016,05,02,03,39,10.30
2016,05,02,03,40,10.30
2016,05,02,03,41,10.20
2016,05,02,03,42,10.20
2016,05,02,03,43,10.20
2016,05,02,03,44,10.20
2016,05,02,03,45,10.30
2016,05,02,03,46,10.30
2016,05,02,03,47,10.40
2016,05,02,03,48,10.40
2016,05,02,03,49,10.40
2016,05,02,03,50,10.50
2016,05,02,03,51,10.40
2016,05,02,03,52,10.40
2016,05,02,03,53,10.40
2016,05,02,03,54,10.40
2016,05,02,03,55,10.40
2016,05,02,03,56,10.40
2016,05,02,03,57,10.40
2016,05,02,03,58,10.40
2016,05,02,03,59,10.30
2016,05,02,04,00,10.30
2016,05,02,04,01,10.20
2016,05,02,04,02,10.20
2016,05,02,04,03,10.20
2016,05,02,04,04,10.20
2016,05,02,04,05,10.10
2016,05,02,04,06,10.10
2016,05,02,04,07,10.00
2016,05,02,04,08,10.00
2016,05,02,04,09,10.00
2016,05,02,04,10,9.90
2016,05,02,04,11,9.90
2016,05,02,04,12,9.90
2016,05,02,04,13,9.90
2016,05,02,04,14,9.90
2016,05,02,04,15,9.90
2016,05,02,04,16,9.90
2016,05,02,04,17,10.00
2016,05,02,04,18,10.00
2016,05,02,04,19,9.90
2016,05,02,04,20,9.90
2016,05,02,04,21,9.80
2016,05,02,04,22,9.80
2016,05,02,04,23,9.90
2016,05,02,04,24,9.90
2016,05,02,04,25,9.90
2016,05,02,04,26,9.90
2016,05,02,04,27,9.90
2016,05,02,04,28,9.90
2016,05,02,04,29,9.90
2016,05,02,04,30,9.80
2016,05,02,04,31,9.80
2016,05,02,04,32,9.80
2016,05,02,04,33,9.80
2016,05,02,04,34,9.80
2016,05,02,04,35,9.80
2016,05,02,04,36,9.70
2016,05,02,04,37,9.70
2016,05,02,04,38,9.70
2016,05,02,04,39,9.70
2016,05,02,04,40,9.70
2016,05,02,04,41,9.70
2016,05,02,04,42,9.70
2016,05,02,04,43,9.70
2016,05,02,04,44,9.70
2016,05,02,04,45,9.70
2016,05,02,04,46,9.70
2016,05,02,04,47,9.70
2016,05,02,04,48,9.80
2016,05,02,04,49,9.90
2016,05,02,04,50,9.90
2016,05,02,04,51,10.00
2016,05,02,04,52,10.00
2016,05,02,04,53,10.00
2016,05,02,04,54,10.00
2016,05,02,04,55,9.90
2016,05,02,04,56,10.00
2016,05,02,04,57,10.00
2016,05,02,04,58,10.00
2016,05,02,04,59,10.00
2016,05,02,05,00,10.00
2016,05,02,05,01,10.00
2016,05,02,05,02,10.00
2016,05,02,05,03,10.00
2016,05,02,05,04,10.00
2016,05,02,05,05,10.10
2016,05,02,05,06,10.10
2016,05,02,05,07,10.10
2016,05,02,05,08,10.10
2016,05,02,05,09,10.10
2016,05,02,05,10,10.10
2016,05,02,05,11,10.10
2016,05,02,05,12,10.20
2016,05,02,05,13,10.20
2016,05,02,05,14,10.20
2016,05,02,05,15,10.20
2016,05,02,05,16,10.10
2016,05,02,05,17,10.10
2016,05,02,05,18,10.10
2016,05,02,05,19,10.10
2016,05,02,05,20,10.10
2016,05,02,05,21,10.10
2016,05,02,05,22,10.10
2016,05,02,05,23,10.10
2016,05,02,05,24,10.10
2016,05,02,05,25,10.10
2016,05,02,05,26,10.20
2016,05,02,05,27,10.10
2016,05,02,05,28,10.10
2016,05,02,05,29,10.10
2016,05,02,05,30,10.10
2016,05,02,05,31,10.10
2016,05,02,05,32,10.00
2016,05,02,05,33,10.00
2016,05,02,05,34,10.00
2016,05,02,05,35,9.90
2016,05,02,05,36,9.90
2016,05,02,05,37,9.90
2016,05,02,05,38,9.80
2016,05,02,05,39,9.80
2016,05,02,05,40,9.80
2016,05,02,05,41,9.80
2016,05,02,05,42,9.80
2016,05,02,05,43,9.80
2016,05,02,05,44,9.80
2016,05,02,05,45,9.80
2016,05,02,05,46,9.70
2016,05,02,05,47,9.70
2016,05,02,05,48,9.70
2016,05,02,05,49,9.70
2016,05,02,05,50,9.70
2016,05,02,05,51,9.70
2016,05,02,05,52,9.70
2016,05,02,05,53,9.80
2016,05,02,05,54,9.80
2016,05,02,05,55,9.80
2016,05,02,05,56,9.90
2016,05,02,05,57,9.90
2016,05,02,05,58,10.00
2016,05,02,05,59,10.10
2016,05,02,06,00,10.10
2016,05,02,06,01,10.10
2016,05,02,06,02,10.10
2016,05,02,06,03,10.10
2016,05,02,06,04,10.10
2016,05,02,06,05,10.10
2016,05,02,06,06,10.10
2016,05,02,06,07,10.10
2016,05,02,06,08,10.10
2016,05,02,06,09,10.10
2016,05,02,06,10,10.10
2016,05,02,06,11,10.10
2016,05,02,06,12,10.00
2016,05,02,06,13,10.00
2016,05,02,06,14,10.00
2016,05,02,06,15,10.00
2016,05,02,06,16,10.00
2016,05,02,06,17,9.90
2016,05,02,06,18,10.00
2016,05,02,06,19,10.00
2016,05,02,06,20,10.00
2016,05,02,06,21,10.00
2016,05,02,06,22,10.00
2016,05,02,06,23,10.10
2016,05,02,06,24,10.10
2016,05,02,06,25,10.10
2016,05,02,06,26,10.20
2016,05,02,06,27,10.20
2016,05,02,06,28,10.30
2016,05,02,06,29,10.30
2016,05,02,06,30,10.30
2016,05,02,06,31,10.40
2016,05,02,06,32,10.40
2016,05,02,06,33,10.50
2016,05,02,06,34,10.60
2016,05,02,06,35,10.70
2016,05,02,06,36,10.70
2016,05,02,06,37,10.80
2016,05,02,06,38,10.80
2016,05,02,06,39,10.90
2016,05,02,06,40,11.00
2016,05,02,06,41,11.10
2016,05,02,06,42,11.20
2016,05,02,06,43,11.30
2016,05,02,06,44,11.40
2016,05,02,06,45,11.40
2016,05,02,06,46,11.40
2016,05,02,06,47,11.40
2016,05,02,06,48,11.40
2016,05,02,06,49,11.40
2016,05,02,06,50,11.50
2016,05,02,06,51,11.50
2016,05,02,06,52,11.60
2016,05,02,06,53,11.70
2016,05,02,06,54,11.80
2016,05,02,06,55,11.90
2016,05,02,06,56,12.00
2016,05,02,06,57,12.10
2016,05,02,06,58,12.20
2016,05,02,06,59,12.30
2016,05,02,07,00,12.40
2016,05,02,07,01,12.50
2016,05,02,07,02,12.60
2016,05,02,07,03,12.70
2016,05,02,07,04,12.70
2016,05,02,07,05,12.80
2016,05,02,07,06,12.80
2016,05,02,07,07,12.70
2016,05,02,07,08,12.70
2016,05,02,07,09,12.70
2016,05,02,07,10,12.80
2016,05,02,07,11,12.80
2016,05,02,07,12,12.90
2016,05,02,07,13,13.00
2016,05,02,07,14,13.00
2016,05,02,07,15,13.10
2016,05,02,07,16,13.00
2016,05,02,07,17,13.00
2016,05,02,07,18,13.00
2016,05,02,07,19,13.10
2016,05,02,07,20,13.10
2016,05,02,07,21,13.20
2016,05,02,07,22,13.40
2016,05,02,07,23,13.50
2016,05,02,07,24,13.70
2016,05,02,07,25,13.80
2016,05,02,07,26,14.00
2016,05,02,07,27,14.10
2016,05,02,07,28,14.20
2016,05,02,07,29,14.30
2016,05,02,07,30,14.40
2016,05,02,07,31,14.50
2016,05,02,07,32,14.60
2016,05,02,07,33,14.70
2016,05,02,07,34,14.80
2016,05,02,07,35,14.80
2016,05,02,07,36,14.80
2016,05,02,07,37,14.70
2016,05,02,07,38,14.60
2016,05,02,07,39,14.60
2016,05,02,07,40,14.60
2016,05,02,07,41,14.60
2016,05,02,07,42,14.60
2016,05,02,07,43,14.60
2016,05,02,07,44,14.70
2016,05,02,07,45,14.80
2016,05,02,07,46,14.90
2016,05,02,07,47,14.90
2016,05,02,07,48,15.00
2016,05,02,07,49,15.10
2016,05,02,07,50,15.10
2016,05,02,07,51,15.20
2016,05,02,07,52,15.30
2016,05,02,07,53,15.40
2016,05,02,07,54,15.40
2016,05,02,07,55,15.60
2016,05,02,07,56,15.70
2016,05,02,07,57,15.80
2016,05,02,07,58,15.90
2016,05,02,07,59,15.90
2016,05,02,08,00,16.00
2016,05,02,08,01,16.00
2016,05,02,08,02,16.00
2016,05,02,08,03,16.00
2016,05,02,08,04,16.10
2016,05,02,08,05,16.20
2016,05,02,08,06,16.30
2016,05,02,08,07,16.50
2016,05,02,08,08,16.70
2016,05,02,08,09,16.80
2016,05,02,08,10,16.90
2016,05,02,08,11,16.90
2016,05,02,08,12,17.00
2016,05,02,08,13,17.10
2016,05,02,08,14,17.10
2016,05,02,08,15,17.10
2016,05,02,08,16,17.20
2016,05,02,08,17,17.20
2016,05,02,08,18,17.20
2016,05,02,08,19,17.20
2016,05,02,08,20,17.20
2016,05,02,08,21,17.40
2016,05,02,08,22,17.60
2016,05,02,08,23,17.70
2016,05,02,08,24,17.90
2016,05,02,08,25,18.00
2016,05,02,08,26,18.10
2016,05,02,08,27,18.20
2016,05,02,08,28,18.20
2016,05,02,08,29,18.30
2016,05,02,08,30,18.30
2016,05,02,08,31,18.40
2016,05,02,08,32,18.60
2016,05,02,08,33,18.70
2016,05,02,08,34,18.70
2016,05,02,08,35,18.70
2016,05,02,08,36,18.80
2016,05,02,08,37,18.80
2016,05,02,08,38,18.80
2016,05,02,08,39,18.90
2016,05,02,08,40,19.00
2016,05,02,08,41,19.20
2016,05,02,08,42,19.30
2016,05,02,08,43,19.40
2016,05,02,08,44,19.60
2016,05,02,08,45,19.70
2016,05,02,08,46,19.90
2016,05,02,08,47,20.00
2016,05,02,08,48,20.10
2016,05,02,08,49,20.20
2016,05,02,08,50,20.20
2016,05,02,08,51,20.20
2016,05,02,08,52,20.20
2016,05,02,08,53,20.30
2016,05,02,08,54,20.30
2016,05,02,08,55,20.40
2016,05,02,08,56,20.60
2016,05,02,08,57,20.70
2016,05,02,08,58,20.80
2016,05,02,08,59,20.90
2016,05,02,09,00,21.00
2016,05,02,09,01,21.10
2016,05,02,09,02,21.10
2016,05,02,09,03,21.10
2016,05,02,09,04,21.20
2016,05,02,09,05,21.20
2016,05,02,09,06,21.20
2016,05,02,09,07,21.20
2016,05,02,09,08,21.30
2016,05,02,09,09,21.30
2016,05,02,09,10,21.30
2016,05,02,09,11,21.30
2016,05,02,09,12,21.30
2016,05,02,09,13,21.30
2016,05,02,09,14,21.30
2016,05,02,09,15,21.20
2016,05,02,09,16,21.20
2016,05,02,09,17,21.20
2016,05,02,09,18,21.20
2016,05,02,09,19,21.30
2016,05,02,09,20,21.30
2016,05,02,09,21,21.30
2016,05,02,09,22,21.40
2016,05,02,09,23,21.50
2016,05,02,09,24,21.60
2016,05,02,09,25,21.60
2016,05,02,09,26,21.60
2016,05,02,09,27,21.60
2016,05,02,09,28,21.60
2016,05,02,09,29,21.60
2016,05,02,09,30,21.60
2016,05,02,09,31,21.70
2016,05,02,09,32,21.70
2016,05,02,09,33,21.70
2016,05,02,09,34,21.70
2016,05,02,09,35,21.70
2016,05,02,09,36,21.80
2016,05,02,09,37,21.80
2016,05,02,09,38,21.90
2016,05,02,09,39,21.90
2016,05,02,09,40,21.90
2016,05,02,09,41,22.00
2016,05,02,09,42,22.00
2016,05,02,09,43,22.10
2016,05,02,09,44,22.10
2016,05,02,09,45,22.10
2016,05,02,09,46,22.10
2016,05,02,09,47,22.20
2016,05,02,09,48,22.20
2016,05,02,09,49,22.30
2016,05,02,09,50,22.30
2016,05,02,09,51,22.30
2016,05,02,09,52,22.30
2016,05,02,09,53,22.30
2016,05,02,09,54,22.30
2016,05,02,09,55,22.40
2016,05,02,09,56,22.40
2016,05,02,09,57,22.50
2016,05,02,09,58,22.50
2016,05,02,09,59,22.60
2016,05,02,10,00,22.60
2016,05,02,10,01,22.60
2016,05,02,10,02,22.70
2016,05,02,10,03,22.70
2016,05,02,10,04,22.80
2016,05,02,10,05,22.70
2016,05,02,10,06,22.70
2016,05,02,10,07,22.70
2016,05,02,10,08,22.70
2016,05,02,10,09,22.70
2016,05,02,10,10,22.80
2016,05,02,10,11,22.80
2016,05,02,10,12,22.80
2016,05,02,10,13,22.80
2016,05,02,10,14,22.80
2016,05,02,10,15,22.80
2016,05,02,10,16,22.90
2016,05,02,10,17,22.90
2016,05,02,10,18,22.90
2016,05,02,10,19,22.90
2016,05,02,10,20,22.90
2016,05,02,10,21,22.90
2016,05,02,10,22,22.80
2016,05,02,10,23,22.90
2016,05,02,10,24,22.90
2016,05,02,10,25,23.00
2016,05,02,10,26,23.00
2016,05,02,10,27,23.00
2016,05,02,10,28,23.10
2016,05,02,10,29,23.10
2016,05,02,10,30,23.20
2016,05,02,10,31,23.20
2016,05,02,10,32,23.30
2016,05,02,10,33,23.30
2016,05,02,10,34,23.30
2016,05,02,10,35,23.30
2016,05,02,10,36,23.40
2016,05,02,10,37,23.40
2016,05,02,10,38,23.40
2016,05,02,10,39,23.40
2016,05,02,10,40,23.40
2016,05,02,10,41,23.40
2016,05,02,10,42,23.40
2016,05,02,10,43,23.50
2016,05,02,10,44,23.50
2016,05,02,10,45,23.60
2016,05,02,10,46,23.60
2016,05,02,10,47,23.70
2016,05,02,10,48,23.70
2016,05,02,10,49,23.70
2016,05,02,10,50,23.70
2016,05,02,10,51,23.70
2016,05,02,10,52,23.70
2016,05,02,10,53,23.80
2016,05,02,10,54,23.80
2016,05,02,10,55,23.80
2016,05,02,10,56,23.80
2016,05,02,10,57,23.80
2016,05,02,10,58,23.80
2016,05,02,10,59,23.90
2016,05,02,11,00,23.90
2016,05,02,11,01,24.00
2016,05,02,11,02,24.10
2016,05,02,11,03,24.10
2016,05,02,11,04,24.00
2016,05,02,11,05,24.00
2016,05,02,11,06,24.10
2016,05,02,11,07,24.20
2016,05,02,11,08,24.20
2016,05,02,11,09,24.30
2016,05,02,11,10,24.30
2016,05,02,11,11,24.30
2016,05,02,11,12,24.30
2016,05,02,11,13,24.20
2016,05,02,11,14,24.20
2016,05,02,11,15,24.30
2016,05,02,11,16,24.30
2016,05,02,11,17,24.30
2016,05,02,11,18,24.30
2016,05,02,11,19,24.40
2016,05,02,11,20,24.50
2016,05,02,11,21,24.40
2016,05,02,11,22,24.40
2016,05,02,11,23,24.30
2016,05,02,11,24,24.30
2016,05,02,11,25,24.40
2016,05,02,11,26,24.40
2016,05,02,11,27,24.50
2016,05,02,11,28,24.50
2016,05,02,11,29,24.50
2016,05,02,11,30,24.50
2016,05,02,11,31,24.50
2016,05,02,11,32,24.60
2016,05,02,11,33,24.50
2016,05,02,11,34,24.50
2016,05,02,11,35,24.50
2016,05,02,11,36,24.50
2016,05,02,11,37,24.60
2016,05,02,11,38,24.70
2016,05,02,11,39,24.70
2016,05,02,11,40,24.70
2016,05,02,11,41,24.80
2016,05,02,11,42,24.80
2016,05,02,11,43,24.80
2016,05,02,11,44,24.90
2016,05,02,11,45,25.00
2016,05,02,11,46,25.10
2016,05,02,11,47,25.10
2016,05,02,11,48,25.10
2016,05,02,11,49,25.10
2016,05,02,11,50,25.10
2016,05,02,11,51,25.10
2016,05,02,11,52,25.20
2016,05,02,11,53,25.20
2016,05,02,11,54,25.30
2016,05,02,11,55,25.30
2016,05,02,11,56,25.30
2016,05,02,11,57,25.40
2016,05,02,11,58,25.40
2016,05,02,11,59,25.40
2016,05,02,12,00,25.40
2016,05,02,12,01,25.50
2016,05,02,12,02,25.50
2016,05,02,12,03,25.40
2016,05,02,12,04,25.40
2016,05,02,12,05,25.40
2016,05,02,12,06,25.30
2016,05,02,12,07,25.20
2016,05,02,12,08,25.20
2016,05,02,12,09,25.30
2016,05,02,12,10,25.40
2016,05,02,12,11,25.40
2016,05,02,12,12,25.40
2016,05,02,12,13,25.50
2016,05,02,12,14,25.50
2016,05,02,12,15,25.60
2016,05,02,12,16,25.70
2016,05,02,12,17,25.70
2016,05,02,12,18,25.80
2016,05,02,12,19,25.60
2016,05,02,12,20,25.40
2016,05,02,12,21,25.10
2016,05,02,12,22,24.60
2016,05,02,12,23,24.30
2016,05,02,12,24,24.00
2016,05,02,12,25,23.60
2016,05,02,12,26,23.20
2016,05,02,12,27,23.00
2016,05,02,12,28,22.90
2016,05,02,12,29,22.60
2016,05,02,12,30,22.40
2016,05,02,12,31,22.30
2016,05,02,12,32,22.30
2016,05,02,12,33,22.30
2016,05,02,12,34,22.30
2016,05,02,12,35,22.50
2016,05,02,12,36,22.60
2016,05,02,12,37,22.50
2016,05,02,12,38,22.40
2016,05,02,12,39,22.30
2016,05,02,12,40,22.30
2016,05,02,12,41,22.30
2016,05,02,12,42,22.30
2016,05,02,12,43,22.50
2016,05,02,12,44,22.80
2016,05,02,12,45,22.90
2016,05,02,12,46,23.10
2016,05,02,12,47,23.30
2016,05,02,12,48,23.50
2016,05,02,12,49,23.70
2016,05,02,12,50,23.90
2016,05,02,12,51,24.10
2016,05,02,12,52,24.30
2016,05,02,12,53,24.50
2016,05,02,12,54,24.70
2016,05,02,12,55,24.90
2016,05,02,12,56,25.10
2016,05,02,12,57,25.30
2016,05,02,12,58,25.30
2016,05,02,12,59,25.40
2016,05,02,13,00,25.40
2016,05,02,13,01,25.50
2016,05,02,13,02,25.50
2016,05,02,13,03,25.60
2016,05,02,13,04,25.60
2016,05,02,13,05,25.70
2016,05,02,13,06,25.70
2016,05,02,13,07,25.80
2016,05,02,13,08,25.80
2016,05,02,13,09,25.80
2016,05,02,13,10,25.90
2016,05,02,13,11,25.90
2016,05,02,13,12,25.90
2016,05,02,13,13,25.90
2016,05,02,13,14,25.90
2016,05,02,13,15,25.90
2016,05,02,13,16,25.90
2016,05,02,13,17,26.00
2016,05,02,13,18,26.10
2016,05,02,13,19,26.10
2016,05,02,13,20,26.00
2016,05,02,13,21,26.10
2016,05,02,13,22,26.10
2016,05,02,13,23,26.10
2016,05,02,13,24,26.10
2016,05,02,13,25,26.20
2016,05,02,13,26,26.20
2016,05,02,13,27,26.20
2016,05,02,13,28,26.20
2016,05,02,13,29,26.20
2016,05,02,13,30,26.20
2016,05,02,13,31,26.20
2016,05,02,13,32,26.20
2016,05,02,13,33,26.20
2016,05,02,13,34,26.30
2016,05,02,13,35,26.30
2016,05,02,13,36,26.40
2016,05,02,13,37,26.40
2016,05,02,13,38,26.50
2016,05,02,13,39,26.50
2016,05,02,13,40,26.40
2016,05,02,13,41,26.40
2016,05,02,13,42,26.30
2016,05,02,13,43,26.30
2016,05,02,13,44,26.30
2016,05,02,13,45,26.30
2016,05,02,13,46,26.30
2016,05,02,13,47,26.40
2016,05,02,13,48,26.50
2016,05,02,13,49,26.60
2016,05,02,13,50,26.60
2016,05,02,13,51,26.70
2016,05,02,13,52,26.70
2016,05,02,13,53,26.80
2016,05,02,13,54,26.90
2016,05,02,13,55,26.90
2016,05,02,13,56,26.90
2016,05,02,13,57,27.00
2016,05,02,13,58,27.00
2016,05,02,13,59,26.90
2016,05,02,14,00,26.90
2016,05,02,14,01,26.80
2016,05,02,14,02,26.50
2016,05,02,14,03,26.20
2016,05,02,14,04,25.90
2016,05,02,14,05,25.70
2016,05,02,14,06,25.60
2016,05,02,14,07,25.30
2016,05,02,14,08,24.80
2016,05,02,14,09,24.30
2016,05,02,14,10,23.60
2016,05,02,14,11,23.20
2016,05,02,14,12,22.90
2016,05,02,14,13,22.50
2016,05,02,14,14,22.10
2016,05,02,14,15,21.80
2016,05,02,14,16,21.80
2016,05,02,14,17,21.80
2016,05,02,14,18,21.90
2016,05,02,14,19,21.90
2016,05,02,14,20,21.80
2016,05,02,14,21,21.60
2016,05,02,14,22,21.50
2016,05,02,14,23,21.30
2016,05,02,14,24,21.20
2016,05,02,14,25,21.20
2016,05,02,14,26,21.00
2016,05,02,14,27,20.90
2016,05,02,14,28,20.90
2016,05,02,14,29,20.80
2016,05,02,14,30,20.80
2016,05,02,14,31,20.80
2016,05,02,14,32,20.70
2016,05,02,14,33,20.70
2016,05,02,14,34,20.70
2016,05,02,14,35,20.70
2016,05,02,14,36,20.70
2016,05,02,14,37,20.70
2016,05,02,14,38,20.70
2016,05,02,14,39,20.60
2016,05,02,14,40,20.60
2016,05,02,14,41,20.60
2016,05,02,14,42,20.70
2016,05,02,14,43,20.60
2016,05,02,14,44,20.60
2016,05,02,14,45,20.60
2016,05,02,14,46,20.60
2016,05,02,14,47,20.60
2016,05,02,14,48,20.50
2016,05,02,14,49,20.50
2016,05,02,14,50,20.50
2016,05,02,14,51,20.40
2016,05,02,14,52,20.40
2016,05,02,14,53,20.40
2016,05,02,14,54,20.60
2016,05,02,14,55,20.70
2016,05,02,14,56,20.80
2016,05,02,14,57,20.90
2016,05,02,14,58,20.90
2016,05,02,14,59,21.00
2016,05,02,15,00,21.10
2016,05,02,15,01,21.20
2016,05,02,15,02,21.30
2016,05,02,15,03,21.40
2016,05,02,15,04,21.50
2016,05,02,15,05,21.50
2016,05,02,15,06,21.50
2016,05,02,15,07,21.50
2016,05,02,15,08,21.40
2016,05,02,15,09,21.20
2016,05,02,15,10,21.10
2016,05,02,15,11,21.10
2016,05,02,15,12,21.20
2016,05,02,15,13,21.20
2016,05,02,15,14,21.30
2016,05,02,15,15,21.40
2016,05,02,15,16,21.60
2016,05,02,15,17,21.70
2016,05,02,15,18,21.80
2016,05,02,15,19,21.80
2016,05,02,15,20,21.90
2016,05,02,15,21,21.90
2016,05,02,15,22,22.00
2016,05,02,15,23,22.20
2016,05,02,15,24,22.30
2016,05,02,15,25,22.40
2016,05,02,15,26,22.50
2016,05,02,15,27,22.50
2016,05,02,15,28,22.50
2016,05,02,15,29,22.40
2016,05,02,15,30,22.40
2016,05,02,15,31,22.40
2016,05,02,15,32,22.40
2016,05,02,15,33,22.30
2016,05,02,15,34,22.20
2016,05,02,15,35,22.10
2016,05,02,15,36,22.00
2016,05,02,15,37,21.80
2016,05,02,15,38,21.70
2016,05,02,15,39,21.60
2016,05,02,15,40,21.50
2016,05,02,15,41,21.40
2016,05,02,15,42,21.30
2016,05,02,15,43,21.20
2016,05,02,15,44,21.10
2016,05,02,15,45,21.10
2016,05,02,15,46,21.00
2016,05,02,15,47,21.00
2016,05,02,15,48,21.10
2016,05,02,15,49,21.00
2016,05,02,15,50,21.00
2016,05,02,15,51,21.00
2016,05,02,15,52,21.00
2016,05,02,15,53,20.90
2016,05,02,15,54,20.90
2016,05,02,15,55,20.90
2016,05,02,15,56,20.90
2016,05,02,15,57,20.80
2016,05,02,15,58,20.80
2016,05,02,15,59,20.80
2016,05,02,16,00,20.80
2016,05,02,16,01,20.80
2016,05,02,16,02,20.80
2016,05,02,16,03,20.80
2016,05,02,16,04,20.90
2016,05,02,16,05,21.00
2016,05,02,16,06,21.10
2016,05,02,16,07,21.10
2016,05,02,16,08,21.20
2016,05,02,16,09,21.30
2016,05,02,16,10,21.40
2016,05,02,16,11,21.60
2016,05,02,16,12,21.70
2016,05,02,16,13,21.70
2016,05,02,16,14,21.70
2016,05,02,16,15,21.80
2016,05,02,16,16,21.80
2016,05,02,16,17,21.80
2016,05,02,16,18,21.70
2016,05,02,16,19,21.60
2016,05,02,16,20,21.50
2016,05,02,16,21,21.40
2016,05,02,16,22,21.40
2016,05,02,16,23,21.40
2016,05,02,16,24,21.40
2016,05,02,16,25,21.40
2016,05,02,16,26,21.40
2016,05,02,16,27,21.30
2016,05,02,16,28,21.40
2016,05,02,16,29,21.40
2016,05,02,16,30,21.50
2016,05,02,16,31,21.50
2016,05,02,16,32,21.50
2016,05,02,16,33,21.60
2016,05,02,16,34,21.60
2016,05,02,16,35,21.60
2016,05,02,16,36,21.60
2016,05,02,16,37,21.50
2016,05,02,16,38,21.40
2016,05,02,16,39,21.40
2016,05,02,16,40,21.30
2016,05,02,16,41,21.30
2016,05,02,16,42,21.30
2016,05,02,16,43,21.30
2016,05,02,16,44,21.30
2016,05,02,16,45,21.30
2016,05,02,16,46,21.30
2016,05,02,16,47,21.30
2016,05,02,16,48,21.30
2016,05,02,16,49,21.30
2016,05,02,16,50,21.30
2016,05,02,16,51,21.20
2016,05,02,16,52,21.20
2016,05,02,16,53,21.10
2016,05,02,16,54,21.10
2016,05,02,16,55,21.10
2016,05,02,16,56,21.00
2016,05,02,16,57,21.00
2016,05,02,16,58,21.00
2016,05,02,16,59,20.90
2016,05,02,17,00,20.90
2016,05,02,17,01,20.90
2016,05,02,17,02,20.90
2016,05,02,17,03,21.00
2016,05,02,17,04,21.00
2016,05,02,17,05,21.10
2016,05,02,17,06,21.20
2016,05,02,17,07,21.30
2016,05,02,17,08,21.40
2016,05,02,17,09,21.50
2016,05,02,17,10,21.70
2016,05,02,17,11,21.90
2016,05,02,17,12,22.10
2016,05,02,17,13,22.30
2016,05,02,17,14,22.50
2016,05,02,17,15,22.70
2016,05,02,17,16,22.90
2016,05,02,17,17,23.00
2016,05,02,17,18,23.20
2016,05,02,17,19,23.30
2016,05,02,17,20,23.50
2016,05,02,17,21,23.60
2016,05,02,17,22,23.60